• In Uzbekistan
  • List of Countries
  • For 7 days
  • Water Temperature
  • Satellite Maps
  • Weather Map
  • Weather Widgets
  • user-avatar
    Login

    Hourly Weather Naru

    Today, 22 September, Saturday

    Time Temperature Precipitation Wind Pressure Humidity
    00:00 +26°C° 0 mm 1 mps 743 mmHg 93%
    01:00 +25°C° 0 mm 1 mps 743 mmHg 94%
    02:00 +25°C° 0 mm 1 mps 743 mmHg 95%
    03:00 +25°C° 0 mm 1 mps 743 mmHg 95%
    04:00 +24°C° 0 mm 1 mps 743 mmHg 95%
    05:00 +25°C° 0 mm 1 mps 743 mmHg 93%
    06:00 +26°C° 0 mm 1 mps 743 mmHg 90%
    07:00 +26°C° 0 mm 1 mps 744 mmHg 87%
    08:00 +29°C° 0 mm 1 mps 744 mmHg 76%
    09:00 +31°C° 0 mm 1 mps 744 mmHg 66%
    10:00 +34°C° 0 mm 1 mps 744 mmHg 55%
    11:00 +35°C° 0 mm 1 mps 744 mmHg 51%
    12:00 +36°C° 0 mm 1 mps 743 mmHg 47%
    13:00 +38°C° 0 mm 2 mps 743 mmHg 44%
    14:00 +36°C° 0.2 mm 2 mps 742 mmHg 51%
    15:00 +35°C° 0.2 mm 2 mps 742 mmHg 58%
    16:00 +34°C° 0.2 mm 2 mps 741 mmHg 65%
    17:00 +31°C° 0 mm 2 mps 741 mmHg 72%
    18:00 +29°C° 0 mm 2 mps 742 mmHg 78%
    19:00 +28°C° 0 mm 2 mps 742 mmHg 85%
    20:00 +27°C° 0 mm 1 mps 742 mmHg 87%
    21:00 +27°C° 0 mm 1 mps 743 mmHg 89%
    22:00 +26°C° 0 mm 1 mps 743 mmHg 91%
    23:00 +26°C° 0 mm 1 mps 743 mmHg 91%

    Tomorrow, 23 September, Sunday

    Time Temperature Precipitation Wind Pressure Humidity
    00:00 +26°C° 0 mm 1 mps 743 mmHg 92%
    01:00 +26°C° 0 mm 1 mps 743 mmHg 93%
    02:00 +25°C° 0.2 mm 1 mps 743 mmHg 93%
    03:00 +25°C° 0.2 mm 1 mps 743 mmHg 94%
    04:00 +25°C° 0.2 mm 1 mps 743 mmHg 94%
    05:00 +25°C° 0.3 mm 1 mps 743 mmHg 93%
    06:00 +24°C° 0.3 mm 0 mps 744 mmHg 91%
    07:00 +24°C° 0.3 mm 0 mps 744 mmHg 89%
    08:00 +26°C° 0.6 mm 0 mps 744 mmHg 82%
    09:00 +28°C° 0.6 mm 0 mps 744 mmHg 75%
    10:00 +32°C° 0.6 mm 1 mps 744 mmHg 68%
    11:00 +33°C° 0.5 mm 1 mps 744 mmHg 63%
    12:00 +34°C° 0.5 mm 1 mps 743 mmHg 58%
    13:00 +36°C° 0.5 mm 1 mps 743 mmHg 52%
    14:00 +34°C° 1.2 mm 1 mps 742 mmHg 59%
    15:00 +33°C° 1.2 mm 1 mps 741 mmHg 65%
    16:00 +32°C° 1.2 mm 1 mps 741 mmHg 71%
    17:00 +31°C° 1.3 mm 1 mps 741 mmHg 78%
    18:00 +29°C° 1.3 mm 1 mps 741 mmHg 84%
    19:00 +25°C° 1.3 mm 0 mps 742 mmHg 90%
    20:00 +25°C° 0.4 mm 0 mps 742 mmHg 91%
    21:00 +27°C° 0.4 mm 1 mps 743 mmHg 93%
    22:00 +26°C° 0.4 mm 1 mps 743 mmHg 94%
    23:00 +24°C° 0.2 mm 0 mps 743 mmHg 94%

    Day after tomorrow, 24 September, Monday

    Time Temperature Precipitation Wind Pressure Humidity
    00:00 +24°C° 0.2 mm 0 mps 743 mmHg 95%
    01:00 +24°C° 0.2 mm 0 mps 742 mmHg 95%
    02:00 +23°C° 1.4 mm 0 mps 742 mmHg 96%
    03:00 +23°C° 1.4 mm 0 mps 742 mmHg 96%
    04:00 +23°C° 1.4 mm 0 mps 741 mmHg 97%
    05:00 +23°C° 0.8 mm 0 mps 742 mmHg 95%
    06:00 +24°C° 0.8 mm 0 mps 742 mmHg 94%
    07:00 +24°C° 0.8 mm 0 mps 743 mmHg 93%
    08:00 +27°C° 0.4 mm 0 mps 743 mmHg 84%
    09:00 +29°C° 0.4 mm 0 mps 743 mmHg 75%
    10:00 +33°C° 0.4 mm 1 mps 743 mmHg 66%
    11:00 +33°C° 0.6 mm 1 mps 742 mmHg 63%
    12:00 +34°C° 0.6 mm 1 mps 742 mmHg 60%
    13:00 +36°C° 0.6 mm 2 mps 741 mmHg 57%
    14:00 +34°C° 0.9 mm 1 mps 740 mmHg 63%
    15:00 +33°C° 0.9 mm 1 mps 740 mmHg 69%
    16:00 +32°C° 0.9 mm 1 mps 739 mmHg 75%
    17:00 +30°C° 0.5 mm 1 mps 739 mmHg 80%
    18:00 +27°C° 0.5 mm 0 mps 740 mmHg 85%
    19:00 +25°C° 0.5 mm 0 mps 740 mmHg 90%
    20:00 +25°C° 0 mm 0 mps 741 mmHg 91%
    21:00 +24°C° 0 mm 0 mps 741 mmHg 91%
    22:00 +24°C° 0 mm 0 mps 742 mmHg 92%
    23:00 +24°C° 0 mm 0 mps 741 mmHg 92%

    25 September, Tuesday

    Time Temperature Precipitation Wind Pressure Humidity
    00:00 +24°C° 0 mm 0 mps 741 mmHg 93%
    01:00 +23°C° 0 mm 0 mps 740 mmHg 93%
    02:00 +23°C° 0.1 mm 0 mps 740 mmHg 93%
    03:00 +23°C° 0.1 mm 0 mps 740 mmHg 94%
    04:00 +23°C° 0.1 mm 0 mps 740 mmHg 94%
    05:00 +24°C° 0 mm 0 mps 740 mmHg 93%
    06:00 +24°C° 0 mm 0 mps 741 mmHg 92%
    07:00 +27°C° 0 mm 1 mps 741 mmHg 91%
    08:00 +29°C° 0.2 mm 1 mps 741 mmHg 83%
    09:00 +31°C° 0.2 mm 1 mps 741 mmHg 74%
    10:00 +33°C° 0.2 mm 1 mps 742 mmHg 66%
    11:00 +34°C° 0.4 mm 1 mps 741 mmHg 63%
    12:00 +35°C° 0.4 mm 2 mps 740 mmHg 59%
    13:00 +36°C° 0.4 mm 2 mps 739 mmHg 55%
    14:00 +35°C° 0.5 mm 2 mps 739 mmHg 60%
    15:00 +34°C° 0.5 mm 1 mps 738 mmHg 64%
    16:00 +33°C° 0.5 mm 1 mps 737 mmHg 69%
    17:00 +31°C° 0.4 mm 1 mps 738 mmHg 75%
    18:00 +30°C° 0.4 mm 1 mps 738 mmHg 82%
    19:00 +26°C° 0.4 mm 0 mps 739 mmHg 89%
    20:00 +26°C° 0.3 mm 0 mps 739 mmHg 90%
    21:00 +25°C° 0.3 mm 0 mps 740 mmHg 90%
    22:00 +25°C° 0.3 mm 0 mps 740 mmHg 91%
    23:00 +25°C° 0.1 mm 0 mps 740 mmHg 92%

    26 September, Wednesday

    Time Temperature Precipitation Wind Pressure Humidity
    00:00 +24°C° 0.1 mm 0 mps 739 mmHg 93%
    01:00 +24°C° 0.1 mm 0 mps 739 mmHg 93%
    02:00 +24°C° 0.2 mm 0 mps 739 mmHg 94%
    03:00 +24°C° 0.2 mm 0 mps 739 mmHg 95%
    04:00 +24°C° 0.2 mm 0 mps 739 mmHg 95%
    05:00 +24°C° 0.1 mm 0 mps 739 mmHg 94%
    06:00 +25°C° 0.1 mm 0 mps 740 mmHg 92%
    07:00 +25°C° 0.1 mm 0 mps 740 mmHg 90%
    08:00 +29°C° 0.1 mm 1 mps 741 mmHg 82%
    09:00 +31°C° 0.1 mm 1 mps 741 mmHg 73%
    10:00 +33°C° 0.1 mm 1 mps 741 mmHg 64%
    11:00 +34°C° 0.7 mm 1 mps 740 mmHg 63%
    12:00 +34°C° 0.7 mm 1 mps 740 mmHg 62%
    13:00 +35°C° 0.7 mm 1 mps 739 mmHg 61%
    14:00 +35°C° 0.4 mm 1 mps 738 mmHg 61%
    15:00 +34°C° 0.4 mm 1 mps 738 mmHg 62%
    16:00 +34°C° 0.4 mm 1 mps 738 mmHg 62%
    17:00 +32°C° 0.3 mm 1 mps 738 mmHg 70%
    18:00 +30°C° 0.3 mm 1 mps 738 mmHg 78%
    19:00 +28°C° 0.3 mm 1 mps 739 mmHg 85%
    20:00 +26°C° 0.1 mm 0 mps 739 mmHg 87%
    21:00 +26°C° 0.1 mm 0 mps 740 mmHg 88%
    22:00 +25°C° 0.1 mm 0 mps 740 mmHg 90%
    23:00 +25°C° 0.3 mm 0 mps 740 mmHg 91%

    27 September, Thursday

    Time Temperature Precipitation Wind Pressure Humidity
    00:00 +25°C° 0.3 mm 0 mps 740 mmHg 92%
    01:00 +24°C° 0.3 mm 0 mps 740 mmHg 93%
    02:00 +24°C° 0.2 mm 0 mps 740 mmHg 93%
    03:00 +24°C° 0.2 mm 0 mps 739 mmHg 94%
    04:00 +24°C° 0.2 mm 0 mps 739 mmHg 94%
    05:00 +24°C° 0 mm 0 mps 740 mmHg 92%
    06:00 +25°C° 0 mm 0 mps 740 mmHg 90%
    07:00 +25°C° 0 mm 0 mps 741 mmHg 88%
    08:00 +28°C° 0.1 mm 0 mps 741 mmHg 79%
    09:00 +30°C° 0.1 mm 0 mps 741 mmHg 70%
    10:00 +34°C° 0.1 mm 1 mps 741 mmHg 60%
    11:00 +35°C° 0.4 mm 1 mps 740 mmHg 57%
    12:00 +36°C° 0.4 mm 1 mps 740 mmHg 54%
    13:00 +37°C° 0.4 mm 1 mps 739 mmHg 51%
    14:00 +36°C° 0.6 mm 1 mps 739 mmHg 54%
    15:00 +35°C° 0.6 mm 1 mps 738 mmHg 57%
    16:00 +35°C° 0.6 mm 1 mps 738 mmHg 60%
    17:00 +33°C° 0.5 mm 1 mps 738 mmHg 68%
    18:00 +31°C° 0.5 mm 1 mps 739 mmHg 76%
    19:00 +29°C° 0.5 mm 1 mps 739 mmHg 84%
    20:00 +28°C° 1.6 mm 1 mps 740 mmHg 86%
    21:00 +26°C° 1.6 mm 0 mps 740 mmHg 89%
    22:00 +25°C° 1.6 mm 0 mps 741 mmHg 92%
    23:00 +25°C° 0.1 mm 0 mps 740 mmHg 92%
    Show more